{"data":{"norad_id":58480,"epoch":"2026-05-24T21:15:36.517248Z","epoch_age_seconds":88387,"freshness":"FRESH","line1":"1 58480U 23186H   26144.88583932  .00000711  00000+0  35365-4 0  9992","line2":"2 58480  43.0022 352.9663 0000856 273.4738  86.6015 15.27576184137558","mean_motion":15.27576184,"eccentricity":8.56e-5,"inclination_deg":43.0022,"raan_deg":352.9663,"arg_perigee_deg":273.4738,"mean_anomaly_deg":86.6015,"bstar":3.5365e-5,"rev_number":13755,"period_min":94.266984199068,"perigee_km":482.47320403231,"apogee_km":483.64784104817,"semimajor_km":6861.1975225402,"source":"CELESTRAK","updated_at":"2026-05-25T13:38:18.651158Z"}}